This is the latest recevied weather packets stored in our database for station/object KB0OLA. If no packets are shown the sender has not sent any weather packets the latest 10 day(s).
| Time | Temp. | Humidity | Pressure | Rain* | Wind** | Luminosity | Snow |
|---|---|---|---|---|---|---|---|
| 1777679138 | 18.89° C | 25% | 1018.6 hPa | 0 mm | - | - | - |
| 1777676718 | 18.89° C | 26% | 1018.8 hPa | 0 mm | - | - | - |
| 1777674320 | 18.33° C | 26% | 1019.1 hPa | 0 mm | - | - | - |
| 1777671938 | 18.33° C | 27% | 1019.4 hPa | 0 mm | - | - | - |
| 1777665337 | 17.22° C | 29% | 1019.9 hPa | 0 mm | - | - | - |
| 1777663557 | 17.22° C | 21% | 1020.2 hPa | 0 mm | - | - | - |
| 1777662937 | 17.22° C | 25% | 1020.2 hPa | 0 mm | - | - | - |
| 1777653316 | 13.33° C | 31% | 1021.2 hPa | 0 mm | - | - | - |
| 1777647918 | 10.56° C | 36% | 1020.9 hPa | 0 mm | - | - | - |
| 1777644318 | 7.22° C | 46% | 1020.5 hPa | 0 mm | - | - | - |
| 1777637117 | 4.44° C | 52% | 1019.1 hPa | 0 mm | - | - | - |
| 1777631718 | 5.56° C | 48% | 1019 hPa | 0 mm | - | - | - |
| 1777630517 | 5.56° C | 49% | 1018.8 hPa | 0 mm | - | - | - |
| 1777628117 | 7.22° C | 44% | 1018.7 hPa | 0 mm | - | - | - |
| 1777623317 | 10° C | 36% | 1018.5 hPa | 0 mm | - | - | - |
| 1777619717 | 10.56° C | 34% | 1018.2 hPa | 0 mm | - | - | - |
| 1777619117 | 10.56° C | 35% | 1018.2 hPa | 0 mm | - | - | - |
| 1777618537 | 10.56° C | 36% | 1018.2 hPa | 0 mm | - | - | - |
| 1777613118 | 10° C | 37% | 1018.1 hPa | 0 mm | - | - | - |
| 1777611917 | 11.11° C | 36% | 1018.2 hPa | 0 mm | - | - | - |
| 1777610117 | 11.67° C | 36% | 1018.2 hPa | 0 mm | - | - | - |
| 1777609517 | 11.67° C | 36% | 1018.1 hPa | 0 mm | - | - | - |
| 1777607117 | 12.22° C | 36% | 1018 hPa | 0 mm | - | - | - |
| 1777606517 | 12.22° C | 36% | 1017.9 hPa | 0 mm | - | - | - |
| 1777604736 | 12.22° C | 35% | 1017.6 hPa | 0 mm | - | - | - |
* Rain latest hour (hover to see other rain measurements)
** Current wind speed in m/s (hover to see current wind gust speed)